Location: Abraham Lincoln Continuation High School
(33.9711°N, 117.3662°W)
Time: 09:36:37
(UTC+00:00)

Cosmos 1680 Rocket - Pass Details

Date: 21 January 2021
Orbit: 761 x 780 km, 74.1° (Epoch: 08 March)

Event Time Altitude Azimuth Distance (km) Brightness Sun altitude
Rises 02:41:58 0° 351° (N) 3,238 6.7 -19.2°
Reaches altitude 10° 02:44:29 10° 358° (N) 2,305 5.9 -19.7°
Enters shadow 02:49:01 41° 56° (NE) 1,092 3.8 -20.7°
